Location: Ab? ar R?sh Ba?r?
(24.1861°N, 32.8847°E)
Time: 07:00:33
(UTC+00:00)

H-2A R/B - Visible Passes

Search period start: 21 May 2022 00:00
Search period end: 31 May 2022 00:00
Orbit: 527 x 648 km, 98.3° (Epoch: 20 May)

Date Brightness Start Highest point End Pass type
(mag) Time Alt. Az. Time Alt. Az. Time Alt. Az.
21 May 2.6 17:32:23 16° SSE 17:35:49 64° ENE 17:40:10 10° N visible
22 May 2.5 17:39:37 17° SSE 17:42:59 79° ENE 17:47:23 10° N visible
23 May 2.6 17:46:52 18° S 17:50:09 84° WSW 17:54:32 10° NNW visible
24 May 2.8 17:54:07 19° S 17:57:18 68° WSW 18:01:39 10° NNW visible
25 May 3.2 18:01:21 18° S 18:04:27 54° WSW 18:08:43 10° NNW visible
26 May 3.6 18:08:34 18° SSW 18:11:36 44° W 18:15:45 10° NNW visible
27 May 4.0 18:15:47 16° SSW 18:18:44 35° W 18:22:43 10° NNW visible
28 May 4.3 18:23:00 15° SSW 18:25:52 29° W 18:29:37 10° NW visible
29 May 4.1 16:54:45 10° ESE 16:57:50 19° ENE 17:00:52 10° NNE visible
29 May 4.6 18:30:12 13° SW 18:32:59 24° W 18:36:27 10° NW visible
30 May 3.9 17:01:28 10° SE 17:04:54 23° ENE 17:08:16 10° NNE visible
30 May 4.9 18:37:23 12° SW 18:40:07 19° W 18:43:13 10° NW visible
